Weather History for Beira, Mozambique

Change the Weather History Date:

Saturday, February 2, 2013

  Actual Average Record
Temperature  
Mean Temperature 84 °F -  
Max Temperature 90 °F 85 °F 90 °F (2013)
Min Temperature 77 °F 77 °F 73 °F (2004)
Cooling Degree Days 18    
Growing Degree Days 34 (Base 50)    
Moisture  
Dew Point 73 °F    
Average Humidity 71    
Maximum Humidity 84    
Minimum Humidity 55    
Precipitation  
Precipitation 0.00 in - - ()
Sea Level Pressure  
Sea Level Pressure 29.72 in    
Wind  
Wind Speed - ()    
Max Wind Speed -    
Max Gust Speed -    
Visibility 11.6 miles    
Events      
Averages and records for this station are not official NWS values.
T = Trace of Precipitation, MM = Missing Value Source: Averaged Metar Reports

Daily Weather History Graph

Daily Weather History Graph

Search for Another Location

Airport:

Trip Planner

Search our weather history database for the weather conditions in past years. The results will help you decide how hot, cold, wet, or windy it might be!

Date:

Astronomy

Feb. 02, 2013 Rise Set
Actual Time 5:25 AM CAT 6:22 PM CAT
Civil Twilight 5:02 AM CAT 6:45 PM CAT
Nautical Twilight 4:34 AM CAT 7:13 PM CAT
Astronomical Twilight 4:06 AM CAT 7:41 PM CAT
Moon 10:35 PM CAT (2/2) 10:49 AM CAT (2/2)
Length of Visible Light 13h 43m
Length of Day
12h 57m
Waning Gibbous, 63% of the Moon is Illuminated
Feb 2
Waning Gibbous
Feb 3
Last Quarter
Feb 10
New
Feb 17
First Quarter
Feb 25
Full

Hourly Weather History & Observations

Time (CAT) Temp. Heat Index Dew Point Humidity Pressure Visibility Wind Dir Wind Speed Gust Speed Precip Events Conditions
12:00 AM 80.6 °F 86.2 °F 75.2 °F 84% 29.77 in - North - - N/A   Partly Cloudy
4:00 AM 80.6 °F 86.2 °F 75.2 °F 84% 29.74 in - North - - N/A   Partly Cloudy
5:00 AM 77 °F - 72 °F 81% 29.75 in 9 mi Calm Calm - -   Partly Cloudy
5:00 AM 77.0 °F - 71.6 °F 83% 29.74 in - North - - N/A   Partly Cloudy
6:00 AM 77.0 °F - 71.6 °F 83% 29.74 in - North - - N/A   Partly Cloudy
7:00 AM 77.0 °F - 69.8 °F 78% 29.77 in - North - - N/A   Partly Cloudy
8:00 AM 78.8 °F - 68.0 °F 69% 29.77 in - North - - N/A   Partly Cloudy
9:00 AM 82.4 °F 88.2 °F 73.4 °F 74% 29.77 in - North - - N/A   Partly Cloudy
10:00 AM 86.0 °F 95.1 °F 75.2 °F 70% 29.77 in - North - - N/A   Scattered Clouds
11:00 AM 87 °F - 75 °F 61% 29.77 in 12 mi Calm Calm - -   Mostly Cloudy
11:00 AM 87.8 °F 97.6 °F 75.2 °F 66% 29.77 in - North - - N/A   Scattered Clouds
12:00 PM 89.6 °F 96.2 °F 71.6 °F 55% 29.74 in - North - - N/A   Scattered Clouds
1:00 PM 89.6 °F 96.2 °F 71.6 °F 55% 29.71 in - North - - N/A   Scattered Clouds
2:00 PM 89.6 °F 99.8 °F 75.2 °F 62% 29.68 in - North - - N/A   Scattered Clouds
3:00 PM 87.8 °F 95.6 °F 73.4 °F 62% 29.65 in - North - - N/A   Scattered Clouds
4:00 PM 86.0 °F 93.4 °F 73.4 °F 66% 29.65 in - North - - N/A   Scattered Clouds
5:00 PM 86 °F - 74 °F 59% 29.66 in 19 mi Calm Calm - -   Partly Cloudy
5:00 PM 86.0 °F 93.4 °F 73.4 °F 66% 29.65 in - North - - N/A   Scattered Clouds
6:00 PM 84.2 °F 89.6 °F 71.6 °F 66% 29.65 in - North - - N/A   Scattered Clouds
7:00 PM 82.4 °F 89.5 °F 75.2 °F 79% 29.65 in - North - - N/A   Scattered Clouds
8:00 PM 82 °F - 73 °F 67% 29.66 in 9 mi Calm Calm - -   Partly Cloudy
8:00 PM 82.4 °F 88.2 °F 73.4 °F 74% 29.68 in - North - - N/A   Scattered Clouds
9:00 PM 82.4 °F 89.5 °F 75.2 °F 79% 29.71 in - North - - N/A   Partly Cloudy
10:00 PM 80.6 °F 86.2 °F 75.2 °F 84% 29.71 in - North - - N/A   Partly Cloudy
11:00 PM 81 °F - 73 °F 72% 29.73 in 9 mi Calm Calm - -   Scattered Clouds
11:00 PM 80.6 °F 85.4 °F 73.4 °F 79% 29.71 in - North - - N/A   Partly Cloudy